{"data":{"norad_id":47373,"intl_designator":"2021-005AA","name":"STARLINK-2092","alt_names":[],"object_type":"PAYLOAD","status":"ACTIVE","operator":null,"country":"US","launch_date":"2021-01-20","launch_site_code":"AFETR","launch_vehicle":null,"mission":null,"orbit_class":"UNKNOWN","rcs_meters":null,"size_class":null,"mass_kg":null,"dimensions":null,"purposes":["comms"],"wikipedia_slug":null,"has_3d_model":false,"image_url":null,"decayed_at":null,"tle_current":{"epoch":"2026-05-25T00:34:14.609280Z","epoch_age_seconds":76283,"freshness":"FRESH","line1":"1 47373U 21005AA  26145.02378020  .00005440  00000+0  18691-3 0  9992","line2":"2 47373  53.1606  67.4602 0001197  87.2002 272.9137 15.31704595294724","mean_motion":15.31704595,"eccentricity":0.0001197,"inclination_deg":53.1606,"raan_deg":67.4602,"arg_perigee_deg":87.2002,"mean_anomaly_deg":272.9137,"bstar":0.00018691,"rev_number":29472,"period_min":94.012905928509,"perigee_km":469.90648886725,"apogee_km":471.54610674074,"semimajor_km":6848.863297804,"source":"CELESTRAK","updated_at":"2026-05-25T13:38:16.526890Z"}}}